Tracking 25193 objects as of 17-Jan-2022
HD Live streaming from Space Station
objects crossing your sky now

OPS 8068

Track OPS 8068 now!
10-day predictions
OPS 8068 is classified as:


NORAD ID: 1580
Int'l Code: 1965-072A
Perigee: 637.8 km
Apogee: 975.6 km
Inclination: 98.3 °
Period: 100.9 minutes
Semi major axis: 7177 km
RCS: 0.631 m2 (medium)
Launch date: September 10, 1965
Source: United States (US)
Launch site: AIR FORCE WESTERN TEST RANGE (AFWTR)
aabbcc
Your satellite tracking list
Your tracking list is empty




NASA's NSSDC Master Catalog

Two Line Element Set (TLE):
1 01580U 65072A   22016.82512305  .00000116  00000-0  48793-4 0  9994
2 01580  98.3382 219.2047 0235366 129.5656 232.6578 14.27658697902866
Source of the keplerian elements: AFSPC